| time (UTC) | temp C | wind direction | speed KPH | gust KPH | rain 1hr cm | rain 24hr cm | rain mn cm | humidity % | barometer mb |
| 20260507060905 | 12 | 111 | 0.0 | 0.0 | 0.00 | 0.00 | 0.00 | 92 | 1010.4 |
| 20260507060405 | 11 | 111 | 0.0 | 0.0 | 0.00 | 0.00 | 0.00 | 92 | 1010.3 |
| 20260507055905 | 11 | 111 | 0.0 | 9.7 | 0.00 | 0.00 | 0.00 | 91 | 1010.3 |
| 20260507054905 | 11 | 106 | 0.0 | 0.0 | 0.00 | 0.00 | 0.00 | 91 | 1010.2 |
| 20260507053905 | 11 | 106 | 0.0 | 0.0 | 0.00 | 0.00 | 0.00 | 91 | 1010.3 |
| 20260507052905 | 11 | 83 | 1.6 | 9.7 | 0.00 | 0.00 | 0.00 | 91 | 1010.3 |
| 20260507052407 | 11 | 77 | 1.6 | 9.7 | 0.00 | 0.00 | 0.00 | 91 | 1010.3 |
| 20260507051905 | 11 | 59 | 1.6 | 9.7 | 0.00 | 0.00 | 0.00 | 91 | 1010.2 |
| 20260507051405 | 11 | 82 | 3.2 | 12.9 | 0.00 | 0.00 | 0.00 | 91 | 1010.4 |
| 20260507050905 | 11 | 29 | 0.0 | 12.9 | 0.00 | 0.00 | 0.00 | 91 | 1010.4 |
| 20260507050405 | 11 | 75 | 3.2 | 11.3 | 0.00 | 0.00 | 0.00 | 91 | 1010.4 |
| 20260507045904 | 11 | 32 | 1.6 | 11.3 | 0.00 | 0.00 | 0.00 | 91 | 1010.4 |
| 20260507045404 | 11 | 69 | 4.8 | 12.9 | 0.00 | 0.00 | 0.00 | 91 | 1010.4 |
| 20260507044905 | 11 | 105 | 3.2 | 9.7 | 0.00 | 0.00 | 0.00 | 91 | 1010.5 |
| 20260507044405 | 11 | 54 | 3.2 | 9.7 | 0.00 | 0.00 | 0.00 | 91 | 1010.5 |
| 20260507043405 | 11 | 125 | 6.4 | 14.5 | 0.00 | 0.00 | 0.00 | 91 | 1010.4 |
| 20260507042904 | 11 | 96 | 3.2 | 14.5 | 0.00 | 0.00 | 0.00 | 91 | 1010.6 |
| 20260507042405 | 11 | 64 | 3.2 | 16.1 | 0.00 | 0.00 | 0.00 | 91 | 1010.5 |
| 20260507041905 | 11 | 110 | 3.2 | 9.7 | 0.00 | 0.00 | 0.00 | 91 | 1010.5 |
| 20260507041405 | 11 | 76 | 0.0 | 3.2 | 0.00 | 0.00 | 0.00 | 90 | 1010.6 |
| 20260507040905 | 11 | 99 | 3.2 | 11.3 | 0.00 | 0.00 | 0.00 | 90 | 1010.7 |
| 20260507040404 | 11 | 263 | 0.0 | 9.7 | 0.00 | 0.00 | 0.00 | 90 | 1010.7 |
| 20260507035905 | 11 | 96 | 1.6 | 9.7 | 0.00 | 0.00 | 0.00 | 90 | 1010.7 |
| 20260507035404 | 11 | 101 | 1.6 | 9.7 | 0.00 | 0.00 | 0.00 | 90 | 1010.8 |
| 20260507034405 | 12 | 18 | 0.0 | 9.7 | 0.00 | 0.00 | 0.00 | 90 | 1010.8 |
| 20260507033905 | 11 | 70 | 3.2 | 8.0 | 0.00 | 0.00 | 0.00 | 90 | 1010.9 |
| 20260507033404 | 12 | 49 | 1.6 | 8.0 | 0.00 | 0.00 | 0.00 | 89 | 1010.8 |
| 20260507032405 | 12 | 46 | 3.2 | 12.9 | 0.00 | 0.00 | 0.00 | 89 | 1010.9 |
| 20260507031905 | 12 | 34 | 1.6 | 14.5 | 0.00 | 0.00 | 0.00 | 89 | 1010.8 |
| 20260507031405 | 12 | 77 | 3.2 | 11.3 | 0.00 | 0.00 | 0.00 | 89 | 1010.8 |
| 20260507030905 | 12 | 89 | 3.2 | 11.3 | 0.00 | 0.00 | 0.00 | 89 | 1010.8 |
| 20260507030405 | 12 | 57 | 1.6 | 16.1 | 0.00 | 0.00 | 0.00 | 89 | 1010.9 |
| 20260507025905 | 12 | 122 | 3.2 | 14.5 | 0.00 | 0.00 | 0.00 | 89 | 1011.0 |
| 20260507025405 | 12 | 176 | 4.8 | 19.3 | 0.00 | 0.00 | 0.00 | 89 | 1010.8 |
| 20260507024904 | 12 | 142 | 4.8 | 14.5 | 0.00 | 0.00 | 0.00 | 88 | 1010.9 |
| 20260507024404 | 12 | 173 | 4.8 | 14.5 | 0.00 | 0.00 | 0.00 | 88 | 1010.8 |
| 20260507023904 | 12 | 147 | 4.8 | 16.1 | 0.00 | 0.00 | 0.00 | 88 | 1010.9 |
| 20260507023404 | 12 | 113 | 3.2 | 16.1 | 0.00 | 0.00 | 0.00 | 88 | 1011.0 |
| 20260507022905 | 12 | 173 | 6.4 | 19.3 | 0.00 | 0.00 | 0.00 | 88 | 1011.0 |
| 20260507022404 | 12 | 123 | 4.8 | 19.3 | 0.00 | 0.00 | 0.00 | 88 | 1010.9 |
| 20260507021905 | 12 | 102 | 3.2 | 19.3 | 0.00 | 0.00 | 0.00 | 88 | 1010.9 |
| 20260507020904 | 12 | 100 | 3.2 | 14.5 | 0.00 | 0.00 | 0.00 | 88 | 1010.9 |
| 20260507020405 | 12 | 219 | 1.6 | 11.3 | 0.00 | 0.00 | 0.00 | 87 | 1010.9 |
| 20260507015904 | 12 | 91 | 8.0 | 20.9 | 0.00 | 0.00 | 0.00 | 87 | 1011.1 |
| 20260507015405 | 12 | 147 | 3.2 | 20.9 | 0.00 | 0.00 | 0.00 | 87 | 1011.1 |
| 20260507014904 | 12 | 42 | 4.8 | 14.5 | 0.00 | 0.00 | 0.00 | 87 | 1011.2 |
| 20260507014404 | 12 | 128 | 3.2 | 12.9 | 0.00 | 0.00 | 0.00 | 87 | 1011.2 |
| 20260507013904 | 12 | 77 | 1.6 | 12.9 | 0.00 | 0.00 | 0.00 | 87 | 1011.2 |
| 20260507013405 | 12 | 51 | 1.6 | 12.9 | 0.00 | 0.00 | 0.00 | 87 | 1011.2 |
| 20260507012904 | 12 | 126 | 4.8 | 20.9 | 0.00 | 0.00 | 0.00 | 87 | 1011.2 |
| 20260507012405 | 12 | 107 | 3.2 | 14.5 | 0.00 | 0.00 | 0.00 | 87 | 1011.3 |
| 20260507011905 | 12 | 115 | 3.2 | 14.5 | 0.00 | 0.00 | 0.00 | 87 | 1011.4 |
| 20260507011405 | 12 | 138 | 3.2 | 25.7 | 0.00 | 0.00 | 0.00 | 87 | 1011.5 |
| 20260507010904 | 12 | 129 | 3.2 | 12.9 | 0.00 | 0.00 | 0.00 | 87 | 1011.5 |
| 20260507010404 | 12 | 130 | 1.6 | 8.0 | 0.00 | 0.00 | 0.00 | 87 | 1011.5 |
| 20260507005904 | 12 | 143 | 1.6 | 9.7 | 0.00 | 0.00 | 0.00 | 87 | 1011.6 |
| 20260507005404 | 12 | 137 | 11.3 | 20.9 | 0.00 | 0.00 | 0.00 | 87 | 1011.6 |
| 20260507004905 | 12 | 146 | 6.4 | 16.1 | 0.00 | 0.00 | 0.00 | 86 | 1011.6 |
| 20260507004405 | 12 | 129 | 4.8 | 14.5 | 0.00 | 0.00 | 0.00 | 86 | 1011.7 |
| 20260507003904 | 12 | 136 | 9.7 | 22.5 | 0.00 | 0.00 | 0.00 | 86 | 1011.8 |
| 20260507003405 | 12 | 144 | 8.0 | 22.5 | 0.00 | 0.00 | 0.00 | 86 | 1011.8 |
| 20260507002904 | 12 | 104 | 6.4 | 19.3 | 0.00 | 0.00 | 0.00 | 86 | 1011.7 |
| 20260507002404 | 12 | 139 | 8.0 | 22.5 | 0.00 | 0.00 | 0.00 | 85 | 1011.8 |
| 20260507001904 | 12 | 64 | 1.6 | 22.5 | 0.00 | 0.00 | 0.00 | 85 | 1011.9 |
| 20260507001405 | 12 | 93 | 1.6 | 16.1 | 0.00 | 0.00 | 0.00 | 85 | 1011.9 |
| 20260507000904 | 12 | 143 | 8.0 | 19.3 | 0.00 | 0.00 | 0.00 | 85 | 1011.9 |
| 20260507000406 | 12 | 155 | 6.4 | 16.1 | 0.00 | 0.00 | 0.00 | 84 | 1011.9 |
| 20260506234905 | 12 | 185 | 1.6 | 12.9 | 0.00 | 0.00 | 0.00 | 84 | 1011.8 |
| 20260506233405 | 12 | 157 | 8.0 | 19.3 | 0.00 | 0.00 | 0.00 | 84 | 1011.8 |
| 20260506232905 | 12 | 122 | 0.0 | 12.9 | 0.00 | 0.00 | 0.00 | 83 | 1011.7 |
| 20260506232404 | 12 | 96 | 1.6 | 11.3 | 0.00 | 0.00 | 0.00 | 83 | 1011.7 |
| 20260506231905 | 12 | 103 | 1.6 | 9.7 | 0.00 | 0.00 | 0.00 | 83 | 1011.7 |
| 20260506230905 | 12 | 104 | 8.0 | 19.3 | 0.00 | 0.00 | 0.00 | 82 | 1011.7 |
| 20260506230404 | 12 | 126 | 6.4 | 14.5 | 0.00 | 0.00 | 0.00 | 82 | 1011.7 |
| 20260506225905 | 12 | 136 | 0.0 | 11.3 | 0.00 | 0.00 | 0.00 | 82 | 1011.8 |
| 20260506225405 | 12 | 108 | 6.4 | 19.3 | 0.00 | 0.00 | 0.00 | 82 | 1011.8 |
| 20260506224404 | 13 | 110 | 4.8 | 14.5 | 0.00 | 0.00 | 0.00 | 81 | 1011.9 |
| 20260506223904 | 13 | 87 | 3.2 | 9.7 | 0.00 | 0.00 | 0.00 | 81 | 1011.9 |
| 20260506223407 | 13 | 111 | 8.0 | 19.3 | 0.00 | 0.00 | 0.00 | 81 | 1012.0 |
| 20260506222405 | 13 | 94 | 4.8 | 19.3 | 0.00 | 0.00 | 0.00 | 80 | 1012.0 |
| 20260506221904 | 13 | 167 | 4.8 | 14.5 | 0.00 | 0.00 | 0.00 | 80 | 1012.0 |
| 20260506221404 | 13 | 114 | 4.8 | 14.5 | 0.00 | 0.00 | 0.00 | 79 | 1012.1 |
| 20260506220904 | 13 | 132 | 4.8 | 14.5 | 0.00 | 0.00 | 0.00 | 79 | 1012.1 |
| 20260506220405 | 13 | 104 | 6.4 | 20.9 | 0.00 | 0.00 | 0.00 | 79 | 1012.2 |
| 20260506215905 | 13 | 132 | 8.0 | 19.3 | 0.00 | 0.00 | 0.00 | 78 | 1012.2 |
| 20260506214905 | 13 | 95 | 3.2 | 11.3 | 0.00 | 0.00 | 0.00 | 77 | 1012.1 |
| 20260506214404 | 13 | 113 | 3.2 | 14.5 | 0.00 | 0.00 | 0.00 | 77 | 1012.1 |
| 20260506213904 | 13 | 85 | 4.8 | 19.3 | 0.00 | 0.00 | 0.00 | 77 | 1012.0 |
| 20260506212404 | 14 | 54 | 3.2 | 12.9 | 0.00 | 0.00 | 0.00 | 75 | 1012.0 |
| 20260506211904 | 14 | 129 | 8.0 | 16.1 | 0.00 | 0.00 | 0.00 | 75 | 1012.0 |
| 20260506211404 | 14 | 94 | 4.8 | 19.3 | 0.00 | 0.00 | 0.00 | 74 | 1012.0 |
| 20260506210904 | 14 | 69 | 8.0 | 19.3 | 0.00 | 0.00 | 0.00 | 74 | 1012.0 |
| 20260506210405 | 14 | 68 | 8.0 | 14.5 | 0.00 | 0.00 | 0.00 | 73 | 1011.9 |
| 20260506205904 | 14 | 77 | 6.4 | 11.3 | 0.00 | 0.00 | 0.00 | 73 | 1011.9 |
| 20260506205404 | 14 | 56 | 6.4 | 16.1 | 0.00 | 0.00 | 0.00 | 72 | 1011.8 |
| 20260506203904 | 15 | 46 | 3.2 | 11.3 | 0.00 | 0.00 | 0.00 | 71 | 1011.7 |
| 20260506203404 | 15 | 65 | 8.0 | 20.9 | 0.00 | 0.00 | 0.00 | 70 | 1011.6 |
| 20260506202405 | 15 | 71 | 6.4 | 14.5 | 0.00 | 0.00 | 0.00 | 69 | 1011.6 |
| 20260506201904 | 15 | 75 | 4.8 | 14.5 | 0.00 | 0.00 | 0.00 | 68 | 1011.6 |
| 20260506201404 | 15 | 96 | 6.4 | 14.5 | 0.00 | 0.00 | 0.00 | 67 | 1011.5 |
| 20260506200904 | 15 | 48 | 4.8 | 14.5 | 0.00 | 0.00 | 0.00 | 67 | 1011.5 |
| 20260506195904 | 16 | 39 | 8.0 | 14.5 | 0.00 | 0.00 | 0.00 | 65 | 1011.3 |
| 20260506194904 | 16 | 44 | 8.0 | 16.1 | 0.00 | 0.00 | 0.00 | 64 | 1011.4 |
| 20260506194404 | 16 | 42 | 3.2 | 12.9 | 0.00 | 0.00 | 0.00 | 63 | 1011.4 |
| 20260506193904 | 16 | 44 | 1.6 | 14.5 | 0.00 | 0.00 | 0.00 | 62 | 1011.4 |
| 20260506193404 | 16 | 27 | 3.2 | 12.9 | 0.00 | 0.00 | 0.00 | 61 | 1011.5 |
| 20260506192904 | 16 | 75 | 6.4 | 22.5 | 0.00 | 0.00 | 0.00 | 61 | 1011.3 |
| 20260506192405 | 16 | 77 | 1.6 | 12.9 | 0.00 | 0.00 | 0.00 | 60 | 1011.3 |
| 20260506191405 | 17 | 118 | 3.2 | 14.5 | 0.00 | 0.00 | 0.00 | 60 | 1011.2 |
| 20260506190905 | 17 | 72 | 3.2 | 8.0 | 0.00 | 0.00 | 0.00 | 59 | 1011.1 |
| 20260506185906 | 17 | 75 | 4.8 | 16.1 | 0.00 | 0.00 | 0.00 | 58 | 1010.9 |
| 20260506184905 | 17 | 23 | 1.6 | 19.3 | 0.00 | 0.00 | 0.00 | 57 | 1010.8 |
| 20260506184405 | 18 | 67 | 1.6 | 14.5 | 0.00 | 0.00 | 0.00 | 56 | 1010.8 |
| 20260506183905 | 18 | 55 | 4.8 | 20.9 | 0.00 | 0.00 | 0.00 | 56 | 1010.8 |
| 20260506183405 | 18 | 21 | 3.2 | 19.3 | 0.00 | 0.00 | 0.00 | 55 | 1010.8 |
| 20260506182906 | 18 | 36 | 4.8 | 16.1 | 0.00 | 0.00 | 0.00 | 54 | 1010.8 |
| 20260506182406 | 18 | 158 | 4.8 | 16.1 | 0.00 | 0.00 | 0.00 | 54 | 1010.8 |
| 20260506181906 | 18 | 51 | 0.0 | 4.8 | 0.00 | 0.00 | 0.00 | 53 | 1010.8 |
| 20260506181405 | 18 | 37 | 1.6 | 8.0 | 0.00 | 0.00 | 0.00 | 53 | 1010.9 |
| 20260506180905 | 19 | 45 | 1.6 | 12.9 | 0.00 | 0.00 | 0.00 | 53 | 1010.8 |
| 20260506180405 | 19 | 98 | 4.8 | 25.7 | 0.00 | 0.00 | 0.00 | 52 | 1011.0 |
| 20260506175905 | 19 | 51 | 1.6 | 19.3 | 0.00 | 0.00 | 0.00 | 51 | 1010.8 |
| 20260506175405 | 19 | 86 | 8.0 | 22.5 | 0.00 | 0.00 | 0.00 | 51 | 1010.9 |
| 20260506174905 | 20 | 156 | 4.8 | 29.0 | 0.00 | 0.00 | 0.00 | 51 | 1010.9 |
| 20260506174406 | 20 | 88 | 4.8 | 20.9 | 0.00 | 0.00 | 0.00 | 50 | 1010.9 |
| 20260506173906 | 20 | 84 | 8.0 | 22.5 | 0.00 | 0.00 | 0.00 | 49 | 1011.0 |
| 20260506173405 | 20 | 111 | 8.0 | 19.3 | 0.00 | 0.00 | 0.00 | 49 | 1011.0 |
| 20260506172905 | 20 | 105 | 4.8 | 16.1 | 0.00 | 0.00 | 0.00 | 48 | 1011.0 |
| 20260506172405 | 20 | 99 | 9.7 | 14.5 | 0.00 | 0.00 | 0.00 | 48 | 1011.2 |
| 20260506171905 | 20 | 80 | 6.4 | 22.5 | 0.00 | 0.00 | 0.00 | 47 | 1011.1 |
| 20260506171405 | 20 | 99 | 1.6 | 16.1 | 0.00 | 0.00 | 0.00 | 47 | 1011.1 |
| 20260506170905 | 20 | 64 | 4.8 | 22.5 | 0.00 | 0.00 | 0.00 | 46 | 1011.2 |
| 20260506170405 | 21 | 77 | 1.6 | 12.9 | 0.00 | 0.00 | 0.00 | 46 | 1011.2 |
| 20260506165906 | 21 | 47 | 1.6 | 16.1 | 0.00 | 0.00 | 0.00 | 47 | 1011.2 |
| 20260506165405 | 21 | 354 | 1.6 | 11.3 | 0.00 | 0.00 | 0.00 | 47 | 1011.1 |
| 20260506164905 | 20 | 108 | 1.6 | 16.1 | 0.00 | 0.00 | 0.00 | 46 | 1011.2 |
| 20260506164405 | 20 | 102 | 4.8 | 16.1 | 0.00 | 0.00 | 0.00 | 48 | 1011.3 |
| 20260506163905 | 20 | 15 | 3.2 | 12.9 | 0.00 | 0.00 | 0.00 | 49 | 1011.2 |
| 20260506163405 | 20 | 41 | 4.8 | 16.1 | 0.00 | 0.00 | 0.00 | 49 | 1011.1 |
| 20260506162905 | 20 | 3 | 3.2 | 12.9 | 0.00 | 0.00 | 0.00 | 49 | 1011.2 |
| 20260506161905 | 20 | 77 | 6.4 | 14.5 | 0.00 | 0.00 | 0.00 | 48 | 1011.2 |
| 20260506160905 | 20 | 43 | 3.2 | 11.3 | 0.00 | 0.00 | 0.00 | 46 | 1011.3 |
| 20260506160405 | 20 | 334 | 3.2 | 8.0 | 0.00 | 0.00 | 0.00 | 45 | 1011.4 |
| 20260506155905 | 20 | 95 | 3.2 | 11.3 | 0.00 | 0.00 | 0.00 | 46 | 1011.4 |
| 20260506155405 | 20 | 76 | 3.2 | 12.9 | 0.00 | 0.00 | 0.00 | 46 | 1011.2 |
| 20260506154905 | 21 | 82 | 6.4 | 12.9 | 0.00 | 0.00 | 0.00 | 45 | 1011.2 |
| 20260506154407 | 21 | 99 | 4.8 | 11.3 | 0.00 | 0.00 | 0.00 | 42 | 1011.2 |
| 20260506153905 | 21 | 46 | 1.6 | 12.9 | 0.00 | 0.00 | 0.00 | 41 | 1011.3 |
| 20260506153405 | 21 | 74 | 0.0 | 14.5 | 0.00 | 0.00 | 0.00 | 41 | 1011.3 |
| 20260506152905 | 21 | 175 | 3.2 | 14.5 | 0.00 | 0.00 | 0.00 | 42 | 1011.5 |
| 20260506152405 | 21 | 32 | 0.0 | 9.7 | 0.00 | 0.00 | 0.00 | 41 | 1011.5 |
| 20260506151905 | 21 | 89 | 4.8 | 11.3 | 0.00 | 0.00 | 0.00 | 42 | 1011.6 |
| 20260506150905 | 21 | 154 | 3.2 | 11.3 | 0.00 | 0.00 | 0.00 | 41 | 1011.8 |
| 20260506150405 | 21 | 43 | 0.0 | 14.5 | 0.00 | 0.00 | 0.00 | 41 | 1011.7 |
| 20260506145405 | 21 | 167 | 4.8 | 11.3 | 0.00 | 0.00 | 0.00 | 39 | 1012.0 |
| 20260506144905 | 22 | 259 | 3.2 | 14.5 | 0.00 | 0.00 | 0.00 | 39 | 1012.1 |
| 20260506144405 | 22 | 213 | 1.6 | 16.1 | 0.00 | 0.00 | 0.00 | 39 | 1012.1 |
| 20260506143905 | 22 | 128 | 0.0 | 9.7 | 0.00 | 0.00 | 0.00 | 39 | 1012.2 |
| 20260506143405 | 22 | 79 | 1.6 | 14.5 | 0.00 | 0.00 | 0.00 | 38 | 1012.2 |
| 20260506142905 | 22 | 161 | 1.6 | 8.0 | 0.00 | 0.00 | 0.00 | 39 | 1012.3 |
| 20260506142405 | 21 | 55 | 0.0 | 9.7 | 0.00 | 0.00 | 0.00 | 40 | 1012.3 |
| 20260506141405 | 21 | 209 | 1.6 | 11.3 | 0.00 | 0.00 | 0.00 | 39 | 1012.5 |
| 20260506140905 | 22 | 126 | 3.2 | 14.5 | 0.00 | 0.00 | 0.00 | 39 | 1012.4 |
| 20260506140405 | 22 | 96 | 3.2 | 9.7 | 0.00 | 0.00 | 0.00 | 37 | 1012.6 |
| 20260506135405 | 22 | 213 | 1.6 | 11.3 | 0.00 | 0.00 | 0.00 | 38 | 1012.6 |
| 20260506134905 | 22 | 126 | 3.2 | 12.9 | 0.00 | 0.00 | 0.00 | 38 | 1012.7 |
| 20260506134405 | 21 | 71 | 0.0 | 3.2 | 0.00 | 0.00 | 0.00 | 39 | 1012.7 |
| 20260506133905 | 21 | 132 | 0.0 | 1.6 | 0.00 | 0.00 | 0.00 | 40 | 1012.9 |
| 20260506132405 | 22 | 241 | 1.6 | 12.9 | 0.00 | 0.00 | 0.00 | 40 | 1013.1 |
| 20260506131905 | 21 | 67 | 0.0 | 4.8 | 0.00 | 0.00 | 0.00 | 41 | 1013.1 |
| 20260506131405 | 21 | 151 | 0.0 | 11.3 | 0.00 | 0.00 | 0.00 | 41 | 1013.1 |
| 20260506130405 | 22 | 183 | 3.2 | 11.3 | 0.00 | 0.00 | 0.00 | 40 | 1013.2 |
| 20260506125905 | 21 | 146 | 1.6 | 9.7 | 0.00 | 0.00 | 0.00 | 40 | 1013.3 |
| 20260506125405 | 22 | 147 | 0.0 | 12.9 | 0.00 | 0.00 | 0.00 | 41 | 1013.2 |
| 20260506124904 | 21 | 27 | 1.6 | 14.5 | 0.00 | 0.00 | 0.00 | 41 | 1013.3 |
| 20260506124405 | 20 | 91 | 0.0 | 0.0 | 0.00 | 0.00 | 0.00 | 42 | 1013.4 |
| 20260506123905 | 20 | 133 | 1.6 | 8.0 | 0.00 | 0.00 | 0.00 | 41 | 1013.4 |
| 20260506122905 | 20 | 125 | 3.2 | 9.7 | 0.00 | 0.00 | 0.00 | 43 | 1013.6 |
| 20260506122405 | 20 | 345 | 4.8 | 11.3 | 0.00 | 0.00 | 0.00 | 41 | 1013.6 |
| 20260506121904 | 21 | 265 | 3.2 | 12.9 | 0.00 | 0.00 | 0.00 | 41 | 1013.6 |
| 20260506121405 | 20 | 103 | 1.6 | 4.8 | 0.00 | 0.00 | 0.00 | 41 | 1013.7 |
| 20260506120904 | 20 | 105 | 1.6 | 9.7 | 0.00 | 0.00 | 0.00 | 42 | 1013.9 |
| 20260506120405 | 21 | 221 | 9.7 | 16.1 | 0.00 | 0.00 | 0.00 | 41 | 1014.0 |
| 20260506115905 | 21 | 89 | 1.6 | 11.3 | 0.00 | 0.00 | 0.00 | 43 | 1014.0 |
| 20260506115405 | 21 | 83 | 1.6 | 16.1 | 0.00 | 0.00 | 0.00 | 44 | 1014.1 |
| 20260506114905 | 20 | 231 | 6.4 | 11.3 | 0.00 | 0.00 | 0.00 | 45 | 1014.2 |
| 20260506114405 | 20 | 209 | 1.6 | 16.1 | 0.00 | 0.00 | 0.00 | 42 | 1014.3 |
| 20260506113905 | 19 | 313 | 1.6 | 9.7 | 0.00 | 0.00 | 0.00 | 44 | 1014.2 |
| 20260506113405 | 20 | 216 | 9.7 | 12.9 | 0.00 | 0.00 | 0.00 | 42 | 1014.3 |
| 20260506112905 | 20 | 184 | 3.2 | 11.3 | 0.00 | 0.00 | 0.00 | 41 | 1014.3 |
| 20260506111405 | 19 | 278 | 3.2 | 9.7 | 0.00 | 0.00 | 0.00 | 45 | 1014.5 |
| 20260506110905 | 19 | 187 | 0.0 | 11.3 | 0.00 | 0.00 | 0.00 | 45 | 1014.6 |
| 20260506110405 | 19 | 170 | 1.6 | 11.3 | 0.00 | 0.00 | 0.00 | 45 | 1014.6 |
| 20260506105905 | 19 | 249 | 0.0 | 12.9 | 0.00 | 0.00 | 0.00 | 47 | 1014.6 |
| 20260506105405 | 20 | 251 | 1.6 | 8.0 | 0.00 | 0.00 | 0.00 | 45 | 1014.6 |
| 20260506104905 | 20 | 167 | 8.0 | 16.1 | 0.00 | 0.00 | 0.00 | 44 | 1014.6 |
| 20260506104405 | 20 | 348 | 0.0 | 14.5 | 0.00 | 0.00 | 0.00 | 44 | 1014.6 |
| 20260506103905 | 20 | 149 | 1.6 | 14.5 | 0.00 | 0.00 | 0.00 | 45 | 1014.7 |
| 20260506103405 | 20 | 128 | 0.0 | 8.0 | 0.00 | 0.00 | 0.00 | 44 | 1014.7 |
| 20260506102905 | 20 | 120 | 1.6 | 9.7 | 0.00 | 0.00 | 0.00 | 45 | 1014.8 |
| 20260506102405 | 19 | 68 | 0.0 | 11.3 | 0.00 | 0.00 | 0.00 | 48 | 1014.8 |
| 20260506101905 | 19 | 113 | 3.2 | 11.3 | 0.00 | 0.00 | 0.00 | 49 | 1014.8 |
| 20260506100905 | 18 | 298 | 1.6 | 8.0 | 0.00 | 0.00 | 0.00 | 51 | 1014.8 |
| 20260506100405 | 19 | 297 | 0.0 | 1.6 | 0.00 | 0.00 | 0.00 | 51 | 1014.8 |
| 20260506095905 | 18 | 86 | 1.6 | 9.7 | 0.00 | 0.00 | 0.00 | 52 | 1014.8 |
| 20260506095405 | 19 | 150 | 1.6 | 12.9 | 0.00 | 0.00 | 0.00 | 52 | 1014.9 |
| 20260506094905 | 19 | 119 | 1.6 | 12.9 | 0.00 | 0.00 | 0.00 | 53 | 1014.9 |
| 20260506094405 | 18 | 83 | 4.8 | 11.3 | 0.00 | 0.00 | 0.00 | 54 | 1014.8 |
| 20260506093904 | 18 | 203 | 1.6 | 8.0 | 0.00 | 0.00 | 0.00 | 55 | 1014.8 |
| 20260506093405 | 18 | 152 | 1.6 | 12.9 | 0.00 | 0.00 | 0.00 | 56 | 1014.8 |
| 20260506092905 | 18 | 161 | 0.0 | 8.0 | 0.00 | 0.00 | 0.00 | 58 | 1014.9 |
| 20260506092405 | 18 | 170 | 4.8 | 12.9 | 0.00 | 0.00 | 0.00 | 57 | 1015.0 |
| 20260506091905 | 17 | 221 | 1.6 | 9.7 | 0.00 | 0.00 | 0.00 | 57 | 1014.9 |
| 20260506091405 | 17 | 126 | 1.6 | 9.7 | 0.00 | 0.00 | 0.00 | 60 | 1015.0 |
| 20260506090905 | 17 | 145 | 1.6 | 14.5 | 0.00 | 0.00 | 0.00 | 61 | 1015.0 |
| 20260506090405 | 17 | 108 | 1.6 | 14.5 | 0.00 | 0.00 | 0.00 | 63 | 1015.0 |
| 20260506085905 | 17 | 110 | 1.6 | 11.3 | 0.00 | 0.00 | 0.00 | 62 | 1015.1 |
| 20260506085405 | 17 | 111 | 0.0 | 11.3 | 0.00 | 0.00 | 0.00 | 64 | 1015.1 |
| 20260506084904 | 16 | 92 | 0.0 | 9.7 | 0.00 | 0.00 | 0.00 | 66 | 1015.1 |
| 20260506084405 | 16 | 90 | 1.6 | 11.3 | 0.00 | 0.00 | 0.00 | 69 | 1015.1 |
| 20260506083905 | 16 | 129 | 1.6 | 14.5 | 0.00 | 0.00 | 0.00 | 70 | 1015.1 |
| 20260506083405 | 16 | 80 | 1.6 | 9.7 | 0.00 | 0.00 | 0.00 | 71 | 1015.2 |
| 20260506082905 | 15 | 131 | 3.2 | 11.3 | 0.00 | 0.00 | 0.00 | 72 | 1015.2 |
| 20260506081905 | 15 | 180 | 0.0 | 8.0 | 0.00 | 0.00 | 0.00 | 72 | 1015.2 |
| 20260506080405 | 14 | 116 | 1.6 | 11.3 | 0.00 | 0.00 | 0.00 | 76 | 1015.0 |
| 20260506073405 | 13 | 140 | 0.0 | 8.0 | 0.00 | 0.00 | 0.00 | 83 | 1015.2 |
| 20260506072905 | 12 | 41 | 0.0 | 0.0 | 0.00 | 0.00 | 0.00 | 85 | 1015.2 |
| 20260506072404 | 12 | 41 | 0.0 | 0.0 | 0.00 | 0.00 | 0.00 | 86 | 1015.2 |
| 20260506071905 | 12 | 41 | 0.0 | 0.0 | 0.00 | 0.00 | 0.00 | 87 | 1015.2 |
| 20260506071405 | 12 | 41 | 0.0 | 0.0 | 0.00 | 0.00 | 0.00 | 88 | 1015.2 |
| 20260506070905 | 11 | 41 | 0.0 | 0.0 | 0.00 | 0.00 | 0.00 | 88 | 1015.2 |
| 20260506070405 | 11 | 82 | 0.0 | 0.0 | 0.00 | 0.00 | 0.00 | 89 | 1015.2 |
| 20260506062405 | 10 | 82 | 0.0 | 1.6 | 0.00 | 0.00 | 0.00 | 92 | 1015.0 |
| 20260506061905 | 10 | 82 | 0.0 | 0.0 | 0.00 | 0.00 | 0.00 | 92 | 1014.9 |
| 20260506061405 | 10 | 82 | 0.0 | 0.0 | 0.00 | 0.00 | 0.00 | 92 | 1015.0 |